パンスターズ彗星

C/2015 T2 ( PanSTARRS )

English version
Home page
Updated on October 8, 2017

---------------------------------------------------------------------

・ プロフィール

発見日 2015年10月9日
発見光度 21.8等
発見者 Pan-STARRS 1 telescope (Haleakala)

・ 写真集

・ 軌道要素

Epoch 2017 May 7.0 TT = JDT 2457880.5
T 2017 May 20.45192 TT                                  MPCW
q   6.9353598            (2000.0)            P               Q
z  -0.0000520      Peri.   30.76272     +0.76567339     +0.05755273
 +/-0.0000009      Node    51.06043     +0.27837819     -0.92753196
e   1.0003603      Incl.  124.54723     +0.57987054     +0.36928599
From 156 observations 2015 Oct. 9-2017 Sept. 25, mean residual 0".4.

・ 光度変化

        m1 = 7.0 + 5 logΔ + 10.0 log r

---------------------------------------------------------------------

軌道要素はM.P.E.C. 2017-T14に掲載されたものです。
光度グラフはComet for Windowsで作成したものです。

---------------------------------------------------------------------

Copyright(C) Seiichi Yoshida (comet@aerith.net). All rights reserved.